Regional Weather Roundup
Issued by NWS Newport/Morehead, NC

Current Version | Previous Version | Text Only | Print | Product List | Glossary On
Versions: 1 2 3 4 5 6 7 8 9 10 11 12 13 14 15 16 17 18 19 20 21 22 23 24 25 26 27 28 29 30 31 32 33 34 35 36 37 38 39 40 41 42 43 44 45 46 47 48 49 50
000 ASUS42 KMHX 170022 RWRMHX WEATHER ROUNDUP FOR EASTERN NORTH CAROLINA NATIONAL WEATHER SERVICE NEWPORT/MOREHEAD CITY NC 800 PM EDT TUE SEP 16 2014 NOTE: "FAIR" INDICATES FEW OR NO CLOUDS BELOW 12,000 FEET WITH NO SIGNIFICANT WEATHER AND/OR OBSTRUCTIONS TO VISIBILITY NCZ015>017-031-032-045>047-102-103-170100- NORTH COAST CITY SKY/WX TMP DP RH WIND PRES REMARKS EDENTON NOT AVBL ELIZABETH CITY CLEAR 72 62 71 E7 29.96F KITTY HAWK PTCLDY 73 60 64 E6 29.96R MANTEO CLEAR 73 59 62 E7 29.97S $$ NCZ045>047-081-094-103-104-170100- CENTRAL COAST CITY SKY/WX TMP DP RH WIND PRES REMARKS FRISCO PTCLDY 76 69 79 S7 29.95S SWANQUARTER N/A 75 N/A N/A NE1 29.91S $$ NCZ095-097-098-100-101-170100- SOUTHERN COAST CITY SKY/WX TMP DP RH WIND PRES REMARKS BEAUFORT CLEAR 77 71 82 SW5 29.95S CEDAR ISLAND N/A 75 N/A N/A NW1 30.00R JACKSONVILLE CLEAR 75 72 90 S3 29.94F NEWPORT NOT AVBL PINEY ISLAND PTCLDY 77 71 82 S6 29.95R WILMINGTON CLEAR 76 71 85 S3 29.94F $$ NCZ011>013-027>030-043-044-078>080-089-090>093-098-170100- COASTAL PLAIN CITY SKY/WX TMP DP RH WIND PRES REMARKS AHOSKIE CLEAR 68 66 93 CALM 29.96S CLINTON CLEAR 73 70 92 CALM 29.95R ELIZABETHTOWN CLEAR 74 68 80 CALM 29.95R GOLDSBORO CLEAR 74 73 96 CALM 29.93S GREENVILLE CLEAR 72 70 94 CALM 29.97S HAVELOCK PTCLDY 75 71 87 CALM 29.96S KENANSVILLE NOT AVBL KINSTON CLEAR 72 70 94 CALM 29.95F NEW BERN CLEAR 75 68 78 CALM 29.95S RICHLANDS CLEAR 73 66 78 CALM 29.95R ROANOKE RAPIDS NOT AVBL ROCKY MOUNT CLEAR 69 66 90 CALM 29.95S WASHINGTON CLEAR 72 68 87 CALM 29.95R WHITEVILLE CLEAR 77 72 84 S3 29.95R $$ AMZ130-135-150-152-154-156-158-170-250-252-270-ANZ085-086-088-633-658-670-170100- MARINE OBSERVATIONS STATION/POSITION TIME TEMP WIND PRES WAVE SWELL AIR SEA DIR/SP/G HT/PER HT/PER (UTC) (F) (DEG/KT/KT) (MB) (FT/S) (FT/S) CHESAPEAKE LIGHT 0000 74 30/ 11/ 11 1015.4 BUOY 44014 0000 75 79 10/ 10/ 14 1014.2 2/13 2/13 DUCK 0000 74 77 60/ 10/ 11 1014.0 2E DUCK 2300 N/A 2/13 2/13 OREGON INLET 0000 73 76 50/ 7/ 11 1014.6 BUOY 44095 0000 78 N/A 2/13 2/13 20E OREGON INLET NOT AVBL HATTERAS CG 0000 77 79 200/ 4/ 6 1014.7 DIAMOND BUOY 0000 76 290/ 2/ 4 1014.6 2/ 8 2/ 8 CAPE LOOKOUT 0000 78 190/ 5/ 6 1014.2 BEAUFORT LAB 0000 78 80 220/ 2/ 5 1013.8 30 SE NEW RIVER 0000 79 82 160/ 6/ 8 1014.6 2/13 2/13 5 SE WRIGHTSVILL 0000 76 82 170/ 6/ 6 N/A BUOY 41002 NOT AVBL BUOY 41004 0000 79 83 40/ 4/ 4 1014.2 2/14 2/14 $$

USA.gov is the U.S. government's official web portal to all federal, state and local government web resources and services.